SAS11T ENGM-EKCH

Flight info

Callsign SAS11T
Flight time 0h 55m
Altitude 37000
Route OKSAT4A OKSAT L996 KELIN DCT TOPLA L996 ERNOV ERNOV4C
Aircraft A320/M-SDE3FGHIRWY/LB1

Departure

Time 2026-05-04 09:31
Airport Oslo-Gardermoen International Airport (ENGM)

Arrival

Time 2026-05-04 10:26
Airport Copenhagen Kastrup Airport (EKCH)
Time Latitude Longitude Altitude Speed Heading
2026-05-04 09:01 60.19669 11.09981 685 ft 0 kts 106°
2026-05-04 09:20 60.19673 11.09958 685 ft 3 kts 106°
2026-05-04 09:20 60.19678 11.09920 683 ft 3 kts 106°
2026-05-04 09:20 60.19684 11.09881 680 ft 3 kts 106°
2026-05-04 09:21 60.19690 11.09843 681 ft 2 kts 106°
2026-05-04 09:21 60.19696 11.09809 678 ft 3 kts 123°
2026-05-04 09:21 60.19708 11.09783 678 ft 3 kts 160°
2026-05-04 09:21 60.19727 11.09777 680 ft 3 kts 188°
2026-05-04 09:22 60.19746 11.09786 682 ft 3 kts 198°
2026-05-04 09:22 60.19761 11.09796 684 ft 1 kts 196°
2026-05-04 09:22 60.19763 11.09797 684 ft 0 kts 196°
2026-05-04 09:25 60.19806 11.09048 682 ft 14 kts 286°
2026-05-04 09:25 60.19838 11.08825 677 ft 15 kts 286°
2026-05-04 09:26 60.19803 11.08689 679 ft 13 kts 197°
2026-05-04 09:26 60.19697 11.08627 679 ft 22 kts 195°
2026-05-04 09:26 60.19549 11.08541 678 ft 22 kts 196°
2026-05-04 09:26 60.19398 11.08454 676 ft 23 kts 196°
2026-05-04 09:27 60.19240 11.08365 674 ft 24 kts 196°
2026-05-04 09:27 60.19136 11.08304 673 ft 13 kts 196°
2026-05-04 09:27 60.19045 11.08251 673 ft 15 kts 196°
2026-05-04 09:27 60.18940 11.08190 672 ft 17 kts 196°
2026-05-04 09:28 60.18821 11.08122 672 ft 19 kts 196°
2026-05-04 09:28 60.18711 11.08059 671 ft 8 kts 196°
2026-05-04 09:28 60.18649 11.08023 670 ft 10 kts 196°
2026-05-04 09:28 60.18572 11.07978 670 ft 13 kts 196°
2026-05-04 09:29 60.18546 11.07823 665 ft 16 kts 291°
2026-05-04 09:29 60.18578 11.07610 666 ft 15 kts 285°
2026-05-04 09:29 60.18600 11.07464 666 ft 5 kts 301°
2026-05-04 09:29 60.18636 11.07455 666 ft 6 kts 15°
2026-05-04 09:30 60.18645 11.07459 666 ft 0 kts 14°
2026-05-04 09:30 60.18766 11.07528 667 ft 51 kts 16°
2026-05-04 09:30 60.19317 11.07846 672 ft 110 kts 16°
2026-05-04 09:30 60.20207 11.08339 681 ft 154 kts
2026-05-04 09:31 60.21258 11.08959 1151 ft 158 kts 13°
2026-05-04 09:31 60.22336 11.09551 1731 ft 163 kts
2026-05-04 09:31 60.23458 11.10095 2280 ft 169 kts
2026-05-04 09:31 60.24659 11.10755 2607 ft 191 kts 10°
2026-05-04 09:32 60.26029 11.11255 2914 ft 209 kts 354°
2026-05-04 09:32 60.27537 11.10916 3293 ft 231 kts 348°
2026-05-04 09:34 60.33536 11.30853 9271 ft 308 kts 87°
2026-05-04 09:34 60.33118 11.35076 10042 ft 311 kts 120°
2026-05-04 09:34 60.31729 11.38388 10553 ft 317 kts 151°
2026-05-04 09:34 60.29662 11.39978 10882 ft 323 kts 180°
2026-05-04 09:35 60.27404 11.40036 11581 ft 329 kts 185°
2026-05-04 09:35 60.25125 11.40385 12437 ft 336 kts 179°
2026-05-04 09:35 60.22801 11.41122 13368 ft 340 kts 176°
2026-05-04 09:35 60.21221 11.41734 13920 ft 343 kts 176°
2026-05-04 09:37 60.04233 11.47957 18894 ft 366 kts 179°
2026-05-04 09:37 60.01711 11.48795 19547 ft 369 kts 179°
2026-05-04 09:38 59.99175 11.49644 20188 ft 371 kts 179°
2026-05-04 09:38 59.96622 11.50503 20823 ft 373 kts 179°
2026-05-04 09:38 59.94051 11.51365 21384 ft 376 kts 179°
2026-05-04 09:38 59.91463 11.52225 21983 ft 379 kts 179°
2026-05-04 09:39 59.88849 11.53093 22610 ft 381 kts 179°
2026-05-04 09:39 59.86224 11.53970 23211 ft 384 kts 179°
2026-05-04 09:39 59.83580 11.54853 23697 ft 387 kts 179°
2026-05-04 09:39 59.80917 11.55741 24163 ft 389 kts 179°
2026-05-04 09:40 59.78239 11.56637 24614 ft 392 kts 178°
2026-05-04 09:40 59.75539 11.57534 25063 ft 394 kts 179°
2026-05-04 09:40 59.72823 11.58428 25493 ft 397 kts 179°
2026-05-04 09:40 59.70092 11.59328 25894 ft 399 kts 179°
2026-05-04 09:41 59.67340 11.60236 26306 ft 402 kts 179°
2026-05-04 09:42 59.47549 11.66726 28795 ft 422 kts 178°
2026-05-04 09:43 59.44643 11.67675 29140 ft 424 kts 178°
2026-05-04 09:43 59.41728 11.68621 29491 ft 426 kts 178°
2026-05-04 09:43 59.38792 11.69564 29827 ft 428 kts 178°
2026-05-04 09:43 59.35846 11.70508 30089 ft 429 kts 177°
2026-05-04 09:44 59.32885 11.71459 30374 ft 432 kts 177°
2026-05-04 09:44 59.29915 11.72421 30657 ft 434 kts 177°
2026-05-04 09:44 59.26924 11.73397 30928 ft 437 kts 177°
2026-05-04 09:46 59.05800 11.80162 33192 ft 440 kts 177°
2026-05-04 09:46 59.02773 11.81117 33544 ft 440 kts 177°
2026-05-04 09:46 58.99754 11.82063 33867 ft 440 kts 177°
2026-05-04 09:47 58.96729 11.83012 34168 ft 440 kts 177°
2026-05-04 09:47 58.93701 11.83967 34471 ft 441 kts 177°
2026-05-04 09:49 58.72506 11.90629 36274 ft 442 kts 177°
2026-05-04 09:49 58.69472 11.91561 36517 ft 442 kts 177°
2026-05-04 09:49 58.66427 11.92502 36719 ft 443 kts 176°
2026-05-04 09:51 58.48283 11.98129 36788 ft 440 kts 177°
2026-05-04 09:51 58.42220 11.99983 36801 ft 441 kts 176°
2026-05-04 09:52 58.36161 12.01825 36800 ft 441 kts 176°
2026-05-04 09:52 58.30100 12.03674 36812 ft 442 kts 176°
2026-05-04 09:53 58.24028 12.05515 36824 ft 442 kts 177°
2026-05-04 09:53 58.17988 12.07188 36821 ft 441 kts 178°
2026-05-04 09:54 58.11903 12.08741 36824 ft 441 kts 178°
2026-05-04 09:54 58.05821 12.10468 36834 ft 442 kts 176°
2026-05-04 09:55 57.99751 12.12527 36843 ft 443 kts 175°
2026-05-04 09:55 57.93678 12.14605 36855 ft 443 kts 176°
2026-05-04 09:56 57.87611 12.16585 36830 ft 443 kts 176°
2026-05-04 09:56 57.81577 12.18507 36842 ft 443 kts 176°
2026-05-04 09:57 57.75499 12.20457 36834 ft 443 kts 176°
2026-05-04 09:57 57.69439 12.22400 36451 ft 438 kts 176°
2026-05-04 09:57 57.66472 12.23359 36351 ft 426 kts 176°
2026-05-04 09:58 57.63584 12.24292 36255 ft 415 kts 176°
2026-05-04 09:58 57.60778 12.25196 36162 ft 404 kts 176°
2026-05-04 09:58 57.58028 12.26081 35775 ft 400 kts 176°
2026-05-04 10:00 57.38463 12.32271 31554 ft 395 kts 176°
2026-05-04 10:00 57.35770 12.33124 31075 ft 392 kts 176°
2026-05-04 10:02 57.17268 12.38900 27781 ft 381 kts 176°
2026-05-04 10:04 56.99277 12.44498 24778 ft 355 kts 177°
2026-05-04 10:04 56.96890 12.45238 24401 ft 350 kts 177°
2026-05-04 10:04 56.94496 12.45971 24023 ft 348 kts 177°
2026-05-04 10:04 56.92113 12.46697 23641 ft 346 kts 177°
2026-05-04 10:05 56.89739 12.47420 23226 ft 346 kts 177°
2026-05-04 10:05 56.87372 12.48142 22814 ft 343 kts 177°
2026-05-04 10:05 56.85024 12.48861 22422 ft 341 kts 177°
2026-05-04 10:05 56.82692 12.49578 22029 ft 339 kts 177°
2026-05-04 10:06 56.80369 12.50285 21620 ft 337 kts 177°
2026-05-04 10:06 56.78061 12.50984 21219 ft 335 kts 177°
2026-05-04 10:06 56.75768 12.51677 20802 ft 334 kts 177°
2026-05-04 10:08 56.62182 12.55783 18290 ft 329 kts 177°
2026-05-04 10:08 56.59924 12.56467 17830 ft 329 kts 177°
2026-05-04 10:08 56.57670 12.57150 17393 ft 327 kts 177°
2026-05-04 10:08 56.55469 12.57820 16974 ft 315 kts 177°
2026-05-04 10:09 56.53348 12.58469 16568 ft 303 kts 178°
2026-05-04 10:09 56.51305 12.59093 16174 ft 293 kts 178°
2026-05-04 10:09 56.49315 12.59698 15802 ft 288 kts 178°
2026-05-04 10:09 56.47345 12.60290 15426 ft 286 kts 178°
2026-05-04 10:10 56.45384 12.60871 15045 ft 286 kts 178°
2026-05-04 10:10 56.43428 12.61445 14673 ft 283 kts 178°
2026-05-04 10:10 56.41488 12.62016 14301 ft 281 kts 178°
2026-05-04 10:10 56.39562 12.62586 13991 ft 280 kts 178°
2026-05-04 10:11 56.37643 12.63158 13639 ft 279 kts 178°
2026-05-04 10:11 56.35730 12.63731 13248 ft 278 kts 177°
2026-05-04 10:11 56.33827 12.64300 12879 ft 278 kts 177°
2026-05-04 10:11 56.31910 12.64871 12506 ft 279 kts 177°
2026-05-04 10:12 56.29998 12.65441 12141 ft 279 kts 177°
2026-05-04 10:12 56.28091 12.66008 11768 ft 274 kts 177°
2026-05-04 10:12 56.26244 12.66563 11416 ft 265 kts 177°
2026-05-04 10:12 56.24444 12.67104 11080 ft 260 kts 176°
2026-05-04 10:13 56.22664 12.67633 10732 ft 258 kts 177°
2026-05-04 10:13 56.20918 12.68148 10401 ft 256 kts 176°
2026-05-04 10:13 56.19170 12.68667 10239 ft 255 kts 176°
2026-05-04 10:13 56.17413 12.69186 10132 ft 255 kts 176°
2026-05-04 10:14 56.15665 12.69696 10035 ft 254 kts 177°
2026-05-04 10:14 56.13919 12.70204 9818 ft 256 kts 176°
2026-05-04 10:16 56.02163 12.73650 7057 ft 241 kts 176°
2026-05-04 10:16 56.00519 12.74132 6683 ft 239 kts 175°
2026-05-04 10:16 55.98876 12.74613 6308 ft 239 kts 175°
2026-05-04 10:16 55.97241 12.75087 5916 ft 237 kts 175°
2026-05-04 10:17 55.95637 12.75552 5541 ft 236 kts 176°
2026-05-04 10:17 55.94019 12.76023 5182 ft 236 kts 176°
2026-05-04 10:19 55.84061 12.83151 3997 ft 234 kts 98°
2026-05-04 10:19 55.83935 12.86044 4005 ft 235 kts 92°
2026-05-04 10:19 55.83637 12.88874 3979 ft 231 kts 118°
2026-05-04 10:19 55.82676 12.91048 4041 ft 221 kts 144°
2026-05-04 10:20 55.81347 12.92289 4003 ft 213 kts 170°
2026-05-04 10:20 55.79907 12.92462 3992 ft 205 kts 194°
2026-05-04 10:20 55.78600 12.91659 3998 ft 196 kts 217°
2026-05-04 10:20 55.77561 12.90195 3911 ft 193 kts 227°
2026-05-04 10:21 55.76563 12.88623 3701 ft 191 kts 227°
2026-05-04 10:21 55.75580 12.87079 3461 ft 186 kts 227°
2026-05-04 10:21 55.74637 12.85605 3218 ft 174 kts 227°
2026-05-04 10:21 55.73748 12.84215 2995 ft 168 kts 227°
2026-05-04 10:22 55.72019 12.81512 2549 ft 161 kts 227°
2026-05-04 10:22 55.71195 12.80227 2324 ft 157 kts 227°
2026-05-04 10:22 55.70374 12.78942 2104 ft 156 kts 226°
2026-05-04 10:23 55.69572 12.77702 2136 ft 154 kts 226°
2026-05-04 10:23 55.68788 12.76448 1791 ft 150 kts 228°
2026-05-04 10:25 55.63557 12.68355 327 ft 141 kts 223°
2026-05-04 10:25 55.62841 12.67227 151 ft 136 kts 224°
2026-05-04 10:25 55.62154 12.66144 25 ft 128 kts 226°
2026-05-04 10:25 55.61524 12.65173 23 ft 110 kts 221°
2026-05-04 10:26 55.61028 12.64409 23 ft 72 kts 221°
2026-05-04 10:26 55.60781 12.64029 28 ft 31 kts 221°
2026-05-04 10:26 55.60695 12.63862 29 ft 16 kts 252°
2026-05-04 10:26 55.60749 12.63676 24 ft 19 kts 310°
2026-05-04 10:27 55.60854 12.63621 25 ft 18 kts 35°
2026-05-04 10:27 55.60963 12.63744 24 ft 20 kts 33°
2026-05-04 10:27 55.61084 12.63883 24 ft 22 kts 33°
2026-05-04 10:27 55.61219 12.64040 24 ft 24 kts 33°
2026-05-04 10:28 55.61316 12.64152 25 ft 26 kts 33°
2026-05-04 10:28 55.61474 12.64331 25 ft 28 kts 33°
2026-05-04 10:28 55.61622 12.64503 24 ft 25 kts 33°
2026-05-04 10:28 55.61769 12.64671 24 ft 23 kts 33°
2026-05-04 10:29 55.61938 12.64866 24 ft 23 kts 33°
2026-05-04 10:29 55.62014 12.64954 24 ft 16 kts 33°
2026-05-04 10:29 55.62100 12.65052 24 ft 15 kts 33°
2026-05-04 10:29 55.62188 12.65155 24 ft 14 kts 33°
2026-05-04 10:30 55.62255 12.65134 24 ft 12 kts 305°
2026-05-04 10:30 55.62307 12.64995 26 ft 15 kts 304°
2026-05-04 10:30 55.62367 12.64833 25 ft 17 kts 303°
2026-05-04 10:30 55.62431 12.64661 24 ft 17 kts 303°
2026-05-04 10:31 55.62486 12.64510 24 ft 10 kts 303°
2026-05-04 10:31 55.62529 12.64395 25 ft 12 kts 303°
2026-05-04 10:32 55.62674 12.64440 26 ft 0 kts 103°
2026-05-04 10:34 55.62647 12.64561 26 ft 0 kts 282°
2026-05-04 10:35 55.62783 12.64163 26 ft 0 kts 122°
2026-05-04 10:35 55.62713 12.64460 25 ft 0 kts 102°